Tracking 28794 objects as of 19-Apr-2024
HD Live streaming from Space Station
objects crossing your sky now

COSMOS 1801

Track COSMOS 1801 now!
10-day predictions
COSMOS 1801 is classified as:


NORAD ID: 17145
Int'l Code: 1986-092H
Perigee: 1,392.5 km
Apogee: 1,477.4 km
Inclination: 74.0 °
Period: 114.4 minutes
Semi major axis: 7805 km
RCS: 0.7115 m2 (medium)
Launch date: November 21, 1986
Source: Commonwealth of Independent States (former USSR) (CIS)
Launch site: PLESETSK MISSILE AND SPACE COMPLEX (PKMTR)
Your satellite tracking list
Your tracking list is empty




NASA's NSSDC Master Catalog

Two Line Element Set (TLE):
1 17145U 86092H   24109.85165354  .00000007  00000-0  13582-3 0  9995
2 17145  74.0159 344.1441 0054380 129.7058 313.9265 12.58831956719104
Source of the keplerian elements: AFSPC